Change the Weather History Date:

Wednesday, September 19, 2012

  Actual Average Record
Temperature  
Mean Temperature 74 °F 67 °F  
Max Temperature 92 °F 79 °F 98 °F (1931)
Min Temperature 55 °F 55 °F 33 °F (1991)
Degree Days  
Heating Degree Days 0 3  
Month to date heating degree days 32 25  
Since 1 July heating degree days 32 28  
Cooling Degree Days 9 4  
Month to date cooling degree days 115 127  
Year to date cooling degree days 1637 1293  
Growing Degree Days 23 (Base 50)    
Moisture  
Dew Point 45 °F    
Average Humidity 43    
Maximum Humidity 66    
Minimum Humidity 20    
Precipitation  
Precipitation 0.00 in 0.11 in 1.52 in (1967)
Month to date precipitation 1.04 1.87  
Year to date precipitation 19.29 22.97  
Snow  
Snow 0.00 in 0.00 in 0.00 in ()
Month to date snowfall 0.0 0.0  
Year to date snowfall 5.8 13.7  
Since 1 July snowfall 0.0 0.0  
Snow Depth 0.00 in    
Sea Level Pressure  
Sea Level Pressure 29.88 in    
Wind  
Wind Speed 10 mph (SW)    
Max Wind Speed 21 mph    
Max Gust Speed 28 mph    
Visibility 10 miles    
Events      
T = Trace of Precipitation, MM = Missing Value Source: NWS Daily Summary

Daily Weather History Graph

Daily Weather History Graph

Search for Another Location

Airport or City:

Trip Planner

Search our weather history database for the weather conditions in past years. The results will help you decide how hot, cold, wet, or windy it might be!

Date:

Astronomy

Sep. 19, 2012 Rise Set
Actual Time 7:15 AM CDT 7:31 PM CDT
Civil Twilight 6:49 AM CDT 7:58 PM CDT
Nautical Twilight 6:17 AM CDT 8:30 PM CDT
Astronomical Twilight 5:45 AM CDT 9:02 PM CDT
Moon 11:26 AM CDT (9/19) 9:43 PM CDT (9/19)
Length of Visible Light 13h 09m
Length of Day
12h 15m
Waxing Crescent, 17% of the Moon is Illuminated
Sep 19
Waxing Crescent
Sep 22
First Quarter
Sep 29
Full
Oct 8
Last Quarter
Oct 15
New

Hourly Weather History & Observations

Time (CDT) Temp. Heat Index Dew Point Humidity Pressure Visibility Wind Dir Wind Speed Gust Speed Precip Events Conditions
12:55 AM 62.1 °F - 44.1 °F 52% 29.89 in 10.0 mi South 18.4 mph 24.2 mph N/A   Clear
1:55 AM 61.0 °F - 44.1 °F 54% 29.88 in 10.0 mi SSW 18.4 mph 25.3 mph N/A   Clear
2:55 AM 60.1 °F - 44.1 °F 55% 29.87 in 10.0 mi SSW 18.4 mph 26.5 mph N/A   Clear
3:55 AM 59.0 °F - 44.1 °F 58% 29.86 in 10.0 mi SSW 18.4 mph - N/A   Clear
4:55 AM 57.0 °F - 44.1 °F 62% 29.88 in 10.0 mi SSW 8.1 mph - N/A   Clear
5:55 AM 57.0 °F - 44.1 °F 62% 29.87 in 10.0 mi SW 5.8 mph - N/A   Clear
6:55 AM 55.9 °F - 44.1 °F 64% 29.88 in 10.0 mi SW 9.2 mph - N/A   Clear
7:55 AM 57.0 °F - 45.0 °F 64% 29.89 in 10.0 mi SW 13.8 mph - N/A   Clear
8:55 AM 61.0 °F - 46.0 °F 58% 29.89 in 10.0 mi SW 16.1 mph - N/A   Clear
9:55 AM 66.0 °F - 46.9 °F 50% 29.89 in 10.0 mi SW 9.2 mph - N/A   Clear
10:55 AM 71.1 °F - 48.0 °F 44% 29.89 in 10.0 mi SW 8.1 mph - N/A   Clear
11:55 AM 75.9 °F - 48.0 °F 37% 29.87 in 10.0 mi SSW 8.1 mph - N/A   Clear
12:55 PM 82.0 °F - 48.0 °F 30% 29.87 in 10.0 mi SW 5.8 mph - N/A   Clear
1:55 PM 86.0 °F - 48.0 °F 27% 29.84 in 10.0 mi SW 11.5 mph - N/A   Clear
2:55 PM 87.1 °F - 48.0 °F 26% 29.81 in 10.0 mi South 9.2 mph 19.6 mph N/A   Clear
3:55 PM 90.0 °F - 48.9 °F 24% 29.79 in 10.0 mi SSW 6.9 mph - N/A   Clear
4:55 PM 88.0 °F - 51.1 °F 28% 29.78 in 10.0 mi SE 8.1 mph - N/A   Clear
5:55 PM 87.1 °F 84.9 °F 53.1 °F 31% 29.81 in 10.0 mi North 10.4 mph - N/A   Clear
6:55 PM 82.0 °F - 37.9 °F 21% 29.86 in 10.0 mi North 15.0 mph 21.9 mph N/A   Clear
7:55 PM 75.9 °F - 39.9 °F 27% 29.90 in 10.0 mi North 10.4 mph - N/A   Clear
8:55 PM 72.0 °F - 39.9 °F 31% 29.94 in 10.0 mi North 6.9 mph - N/A   Clear
9:55 PM 68.0 °F - 39.9 °F 36% 29.96 in 10.0 mi North 9.2 mph - N/A   Clear
10:55 PM 64.9 °F - 39.0 °F 39% 29.99 in 10.0 mi North 9.2 mph - N/A   Clear
11:55 PM 62.1 °F - 37.9 °F 41% 29.99 in 10.0 mi NE 6.9 mph - N/A   Clear